Starlink 30129

operational
NORAD ID: 56689 Int'l Des: 2023-067 Owner: SPXS Country: US Constellation: starlink
LEOCIRCULAR

About Starlink 30129

Description loading...

Live Position

Loading 3D Globe...

Upcoming Passes

Altitude History

Altitude vs Time

uPlot chart will show altitude changes over time

Two-Line Element Set

1 56689U 23067B 25351.31387240 .00000843 00000-0 77435-4 0 9991
2 56689 43.0041 2.4688 0001255 275.3399 84.7300 15.02540245143263
Epoch: Dec 17, 2025 • Age: 15 hours

Current Status

Altitude 562.0 km
Velocity 7.58 km/s
Sub-Earth Point -15.75°S, 127.82°E
Launch Date May 19, 2023
Age 2.5 years
Type internet

Technical Details

Classification Payload
Mass 730.00 kg
Dry Mass 700.00 kg
Total Mass 730.00 kg
Length 0.30 m
Diameter 4.10 m
Span 29.00 m
Shape Box + pan
Manufacturer SPXS
Bus Type Starlink V2M
Phase Status In Orbit
Owner/State SPXS/US

Large Constellations

Loading constellations...